Location: Helmsdorf
(51.2964°N, 10.3512°E)
Time: 10:27:25
(UTC+00:00)

Daily predictions for brighter satellites

Satellite Brightness Start Highest point End
(mag) Time Altitude Azimuth Time Altitude Azimuth Time Altitude Azimuth
ATLAS 5 CENTAUR R/B 3.6 19:39:21 10° NW 19:43:44 29° NNE 19:48:50 10° E
Terra 3.4 19:41:12 10° ESE 19:44:46 22° ENE 19:48:22 10° N
RESURS DK-1 3.5 19:42:04 10° SW 19:46:08 51° NW 19:50:13 10° NNE
Cosmos 332 Rocket 4.1 19:41:34 10° NNW 19:46:27 71° WSW 19:51:20 10° SSE
Meteor 2-3 Rocket 3.9 19:42:31 10° S 19:48:01 54° E 19:53:37 10° NNE
SPOT 3 Rocket 3.6 19:43:28 10° SSE 19:48:41 77° ENE 19:53:56 10° NNW
CZ-2C R/B 4.5 19:44:46 10° NNE 19:48:49 32° E 19:52:48 10° SSE
Cosmos 1933 3.3 19:47:24 10° N 19:51:30 82° E 19:55:31 10° SSE
Cosmos 1271 Rocket 2.8 19:48:46 10° N 19:52:47 75° ENE 19:56:47 10° SSE
NOSS 3-1 (C) 4.4 19:46:07 10° NW 19:53:02 57° NE 20:01:15 10° ESE
COSMOS 2428 4.3 19:48:46 10° NNW 19:53:27 25° NE 19:58:06 10° E
Cosmos 1328 Rocket 4.4 19:49:43 10° N 19:53:51 36° ENE 19:57:55 10° SE
Gbstr 26 Del rocket 3.7 19:51:03 10° W 19:54:27 34° SSW 19:58:01 10° SE
Cosmos 1766 Rocket 4.4 19:51:55 10° SSE 19:55:46 31° E 19:59:37 10° NNE
Cosmos 1538 Rocket 4.2 19:51:59 10° SSW 19:57:11 81° WNW 20:02:24 10° NNE
OBJECT-B 3.7 19:56:14 10° SW 19:58:13 15° W 20:00:13 10° NW
CZ-3B R/B 4.1 19:38:43 10° W 20:00:37 72° N 20:05:25 10° E
SPOT 5 3.6 19:57:41 10° SE 20:01:37 34° ENE 20:05:41 10° N
IGS 5A 3.9 19:58:02 10° S 20:02:09 63° W 20:06:17 10° NNW
Cosmos 2098 Rocket 3.5 19:59:08 10° SSW 20:02:26 54° WNW 20:06:31 10° N
ARIANE 5 R/B 3.3 19:59:06 10° SE 20:03:18 42° ENE 20:07:30 10° N
Meteor 2-19 Rocket 4.4 19:57:51 10° S 20:03:54 81° E 20:10:00 10° NNE
Cosmos 2195 Rocket 4.5 20:00:20 10° S 20:06:24 71° E 20:12:29 10° NNE
Cosmos 1782 2.8 20:03:24 10° N 20:07:26 74° ENE 20:11:26 10° SSE
Ariane Rocket 4.1 20:03:04 10° S 20:07:54 44° W 20:12:46 10° NNW
Landsat 7 4.2 20:04:36 10° S 20:09:19 65° WSW 20:14:05 10° NNW
Cosmos 1624 Rocket 4.1 20:06:04 10° NNW 20:11:15 65° ENE 20:16:05 12° SE
Cosmos 2082 Rocket 3.5 20:08:42 10° SW 20:14:06 46° NW 20:19:36 10° NNE
Cosmos 220 Rocket 4.0 20:10:08 10° NNW 20:14:31 84° ENE 20:18:36 12° SSE
ATLAS 3B R/B 4.2 20:12:32 10° NW 20:18:36 31° WSW 20:24:52 10° S
Cosmos 2360 Rocket 2.3 20:13:16 10° NNW 20:18:55 72° ENE 20:23:55 13° SE
CZ-4C R/B 4.4 20:14:29 10° WNW 20:19:41 28° N 20:25:48 10° ENE
Cosmos 1420 Rocket 4.4 20:14:27 10° NNW 20:19:42 54° ENE 20:24:12 14° SE
ATLAS 2AS CENTAUR R/B 4.0 20:15:33 10° WSW 20:23:13 52° NNW 20:30:36 10° NE
Cosmos 1174 3.4 20:21:21 10° NNW 20:24:21 54° NE 20:26:29 17° ESE
Cosmos 1092 Rocket 4.2 20:21:26 10° SSW 20:27:42 81° W 20:34:05 10° N
NOSS 3-1 (A) 4.4 20:22:33 10° NW 20:29:30 58° NE 20:37:35 11° ESE
Cosmos 2151 4.1 20:28:28 10° SSW 20:32:34 46° WNW 20:36:44 10° N
NOSS 2-1 (C) 3.3 20:29:32 10° SSW 20:32:35 37° SE 20:35:44 10° ENE
ERS-2 3.6 20:29:34 10° N 20:33:00 39° WNW 20:36:24 10° SW
Cosmos 2026 Rocket 4.1 20:30:22 10° S 20:36:42 85° W 20:43:00 10° N
Cosmos 1812 2.7 20:33:38 10° N 20:37:32 81° E 20:40:31 16° SSE
Cosmos 2084 3.4 20:34:10 10° SSW 20:38:10 56° SE 20:42:17 10° NE
COSMOS 2455 3.8 20:34:50 13° SSE 20:38:50 26° ESE 20:43:43 10° NE
GP-B 3.2 20:34:40 10° N 20:39:07 77° W 20:43:33 10° S
Meteor 1-27 Rocket 4.4 20:33:52 10° N 20:39:14 42° ENE 20:43:22 17° SE
Cosmos 2333 Rocket 2.6 20:34:26 10° NNW 20:40:02 56° NE 20:44:24 17° SE
NOSS 2-1 (D) 3.1 20:37:10 10° SSW 20:40:18 44° SE 20:43:34 10° NE
Cosmos 1452 Rocket 4.2 20:37:04 10° NNW 20:42:08 45° ENE 20:45:57 17° SE
Cosmos 923 Rocket 4.3 20:38:00 10° SSW 20:43:21 75° WNW 20:48:43 10° NNE
SPOT 1/Viking Rocket 4.3 20:39:09 10° S 20:44:12 51° W 20:49:19 10° NNW
ERS-1 Rocket 3.0 20:40:25 15° SSE 20:44:36 83° ENE 20:49:39 10° NNW
USA 245 4.2 20:42:17 10° S 20:46:53 50° WSW 20:50:35 10° NNW
Cosmos 2322 4.0 20:41:34 10° NNW 20:47:14 60° NE 20:51:30 18° SE
SL-27 R/B 2.6 20:44:41 13° S 20:47:40 52° ESE 20:51:12 10° NNE
Cosmos 2056 Rocket 3.8 20:46:47 10° NNW 20:52:07 65° WSW 20:56:16 16° S
Cosmos 2237 Rocket 3.8 20:47:48 10° NNW 20:52:32 26° NE 20:57:14 10° E
Cosmos 2322 Rocket 3.0 20:47:46 10° NW 20:53:06 44° WSW 20:57:55 12° S
Okean 3 Rocket 3.7 20:48:47 10° SSW 20:53:17 80° WNW 20:57:51 10° N
Cosmos 1408 Rocket 3.6 20:50:55 17° S 20:54:09 59° E 20:58:25 10° NNE
Meteor 2-14 Rocket 4.4 20:49:18 10° S 20:55:26 79° E 21:01:36 10° NNE
Cosmos 1743 Rocket 4.3 20:55:45 22° SE 20:58:02 37° E 21:02:07 10° NNE
CZ-4B DEB 4.4 21:00:12 29° SE 21:01:33 57° ENE 21:04:40 10° N
Meteor 1-10 Rocket 4.2 20:57:36 10° NNW 21:03:12 89° W 21:07:17 19° S
CARTOSAT-1 4.4 20:59:31 12° S 21:03:15 46° W 21:07:26 10° NNW
USA 234 3.7 20:57:54 10° E 21:04:19 61° NNE 21:10:46 10° WNW
Gblst 52 Del rocket 4.4 21:00:04 10° WNW 21:06:02 77° SSW 21:11:50 15° ESE
Spot 2 Rocket 4.3 21:03:04 12° S 21:07:39 48° W 21:12:37 10° NNW
Cosmos 2219 Rocket 2.2 21:05:16 10° NNW 21:10:54 74° ENE 21:14:26 23° SE
Resurs 01 Rocket 4.2 21:12:19 10° SW 21:14:55 15° W 21:17:33 10° NW
Cosmos 1680 Rocket 4.3 21:12:15 10° SW 21:17:25 54° WNW 21:22:35 10° NNE
Cosmos 1515 Rocket 3.8 21:13:23 10° NNW 21:17:48 65° W 21:20:37 21° S
SL-16 R/B 4.3 21:17:32 10° NNW 21:21:38 20° NNE 21:25:43 10° E
Terra 2.1 21:19:00 21° S 21:22:07 65° WSW 21:26:52 10° NNW
Cosmos 2285 Rocket 4.0 21:16:01 10° NNW 21:22:21 77° ENE 21:26:17 24° SSE
SL-16 R/B 4.1 21:19:09 10° NW 21:23:21 22° W 21:27:31 10° SSW
Cosmos 2266 Rocket 4.0 21:19:57 19° S 21:24:33 75° E 21:30:50 10° NNE
Cosmos 2315 Rocket 4.1 21:20:41 10° N 21:27:01 72° ENE 21:30:56 25° SSE
IRIDIUM 103 4.4 21:22:20 10° N 21:27:33 63° E 21:30:18 28° SSE
ATLAS 5 CENTAUR R/B 2.3 21:23:43 10° NW 21:29:04 79° NE 21:33:05 23° SE
Cosmos 2333 4.4 21:24:31 10° NW 21:30:04 62° WSW 21:33:17 25° S
Cosmos 2228 Rocket 3.0 21:28:50 10° N 21:33:17 79° E 21:35:17 32° SSE
Okean 1 4.3 21:34:28 10° N 21:38:11 35° ENE 21:39:27 28° ESE
COSMOS 2428 2.7 21:32:44 10° NNW 21:38:28 87° WSW 21:41:31 29° SSE
NOSS 2-1 (E) 3.4 21:35:17 10° WSW 21:38:30 60° NW 21:42:05 10° NE
SPOT 5 4.0 21:36:47 15° SSW 21:39:46 31° W 21:43:45 10° NNW
ARIANE 5 R/B 4.3 21:36:31 12° SSW 21:39:54 26° W 21:43:40 10° NW
NOSS 3-1 (C) 4.4 21:36:59 10° NW 21:44:12 57° SW 21:49:23 25° SSE
Cosmos 1707 Rocket 4.0 21:40:08 10° N 21:44:23 49° ENE 21:45:57 33° SE
IRIDIUM 106 4.3 21:40:33 10° N 21:45:49 87° E 21:48:29 30° S
Cosmos 1048 Rocket 4.0 21:48:39 30° S 21:51:01 60° ESE 21:56:05 10° NNE
Cosmos 1655 Rocket 4.5 21:54:12 14° SSW 21:59:44 61° WNW 22:06:06 10° N
USA 229 DEB 4.0 21:53:01 10° NW 22:00:14 66° SW 22:04:27 29° SSE
USA 229 4.0 21:53:07 10° NW 22:00:19 66° SW 22:04:33 29° SSE
ALOS 2 3.4 21:59:22 29° ESE 22:00:59 41° ENE 22:05:08 10° N
COSMOS 2487 2.4 22:00:10 43° SW 22:01:09 73° WNW 22:04:33 10° NNE
Cosmos 2360 Rocket 3.9 21:58:05 10° NW 22:02:23 23° WSW 22:05:41 14° SW
Cosmos 972 Rocket 3.9 21:59:17 23° SSW 22:02:37 85° WNW 22:07:35 10° NNE
Cosmos 1805 Rocket 3.5 22:02:11 36° SSW 22:04:00 87° W 22:08:27 10° N
Cosmos 2084 Rocket 3.3 22:03:46 10° NW 22:07:57 89° NE 22:09:17 44° SE
CZ-4C R/B 3.9 22:03:39 10° NW 22:09:54 42° NNE 22:17:19 10° E
USA 267 3.5 22:05:10 10° ENE 22:11:24 45° SE 22:14:48 25° SSW
Cosmos 1980 3.7 22:09:11 10° NNW 22:14:53 76° ENE 22:17:31 33° SE
NOSS 0 Rocket 3.9 22:09:45 10° NNW 22:16:00 79° WSW 22:18:54 34° SSE
NOSS 3-1 (A) 4.3 22:13:27 10° NW 22:20:41 55° SW 22:25:00 29° S
Cosmos 2333 Rocket 3.4 22:19:09 10° NW 22:24:02 30° WSW 22:26:23 22° SW
COSMOS 2455 3.0 22:18:15 10° SW 22:24:15 74° NW 22:30:19 10° NE
Lacrosse 5 2.6 22:25:49 34° SE 22:25:49 34° SE 22:30:06 10° ENE
Meteor 1-20 Rocket 4.2 22:23:03 30° SSW 22:25:56 81° WNW 22:31:43 10° N
Nadezhda 2 Rocket 4.5 22:23:24 31° S 22:26:41 88° E 22:33:10 10° N
COBE Rocket 4.1 22:26:51 37° SSW 22:28:26 56° W 22:33:06 10° NNW
NOSS 2-2 (D) 4.2 22:24:44 10° NW 22:29:45 86° NE 22:33:24 28° SE
Cosmos 972 4.5 22:28:20 33° SSW 22:30:52 88° ESE 22:35:59 10° NNE
BREEZE-M R/B 2.8 22:31:56 47° SE 22:31:56 47° SE 22:36:15 10° E
Cosmos 2297 Rocket 2.8 22:32:07 35° SE 22:33:27 40° ESE 22:38:43 10° NE
Cosmos 1500 3.1 22:34:31 64° SSE 22:34:58 74° E 22:38:49 10° NNE
Sich 1 3.5 22:34:10 33° SW 22:35:51 54° WNW 22:40:07 10° N
Cosmos 2237 Rocket 2.1 22:31:33 10° NNW 22:37:16 83° WSW 22:39:29 39° SSE
Cosmos 1244 Rocket 4.4 22:34:47 32° SSW 22:37:51 84° W 22:44:07 10° N
BREEZE-M DEB (TANK) 4.3 22:41:23 10° W 22:42:20 14° WSW 22:42:20 14° WSW
Cosmos 1470 Rocket 3.7 22:43:08 49° SE 22:43:50 55° E 22:48:05 10° NNE
Cosmos 1633 Rocket 2.9 22:44:03 52° SSW 22:45:06 86° W 22:49:30 10° N
Cosmos 2227 Rocket 2.8 22:44:30 34° SE 22:45:43 38° ESE 22:50:55 10° NE
USA 234 3.2 22:42:59 24° SE 22:47:16 78° SSW 22:53:52 10° WNW
Cosmos 1933 Rocket 4.1 22:49:28 40° ESE 22:50:14 44° E 22:54:28 10° NNE
APEX 4.4 22:48:05 30° SSW 22:51:15 89° ESE 22:58:06 10° NNE
Cosmos 1666 Rocket 3.8 22:50:45 41° SW 22:52:06 63° WNW 22:56:34 10° N
Cosmos 2242 Rocket 4.1 22:48:19 10° N 22:52:37 49° ENE 22:53:45 39° ESE
Cosmos 2219 Rocket 3.7 22:50:05 10° NW 22:54:16 22° WSW 22:56:08 18° SW
Cosmos 1340 Rocket 3.3 22:54:24 42° ESE 22:54:35 42° E 22:58:20 10° NNE
Cosmos 1378 3.6 22:51:53 10° N 22:55:29 47° ENE 22:55:52 45° E
Cosmos 44 4.5 22:58:33 10° NW 23:03:41 44° NE 23:07:58 13° ESE
SL-16 R/B 2.4 23:01:11 10° NNW 23:06:51 68° ENE 23:09:38 31° SE
Cosmos 1862 Rocket 4.3 23:09:12 10° NNW 23:13:16 40° W 23:14:06 36° WSW
ATLAS 5 CENTAUR R/B 3.5 23:08:44 10° WNW 23:13:28 28° WSW 23:14:34 26° SW
Okean 3 4.1 23:10:50 10° N 23:15:00 48° ENE 23:16:01 39° ESE
Meteor 2-4 Rocket 4.2 23:17:09 10° NNW 23:22:53 52° W 23:24:59 35° SSW
Intercosmos 25 Rocket 4.1 23:24:02 44° SE 23:25:04 55° E 23:31:04 10° NNE
Cosmos 1743 4.0 23:25:44 28° E 23:26:03 28° E 23:29:22 10° NNE
Cosmos 1666 3.0 23:26:25 51° WSW 23:26:55 56° WNW 23:30:44 10° N
Meteor 1-11 Rocket 3.9 23:25:58 40° SSE 23:27:45 60° E 23:33:11 10° NNE
Cosmos 1703 Rocket 3.5 23:24:30 10° NNW 23:28:52 76° W 23:29:38 58° SSW
PSLV R/B 3.9 23:28:14 10° NNE 23:33:01 64° ESE 23:34:07 48° SSE
Cosmos 1709 Rocket 4.0 23:30:39 38° S 23:33:16 81° E 23:39:41 10° NNE
Cosmos 1992 Rocket 4.0 23:30:01 10° NNW 23:35:14 71° WSW 23:36:41 47° S
ASTEX 1 4.3 23:35:16 27° SE 23:37:20 41° ENE 23:41:57 10° N
ALOS 2 3.9 23:36:46 25° WSW 23:37:27 26° W 23:41:11 10° NW
Cosmos 1943 4.5 23:33:28 10° NNW 23:38:48 38° NE 23:44:06 10° ESE
Cosmos 909 Rocket 4.3 23:36:15 35° SSW 23:39:18 71° ESE 23:47:15 10° NE
Cosmos 1745 Rocket 4.3 23:39:16 31° SW 23:42:13 58° WNW 23:48:28 10° N
CZ-2D R/B 4.1 23:39:09 10° NE 23:42:52 18° E 23:45:32 13° ESE
Cosmos 2219 3.2 23:42:22 36° SW 23:44:52 81° WNW 23:50:40 10° NNE
Cosmos 1066 Rocket 4.3 23:40:40 10° NNW 23:46:33 76° W 23:48:43 41° S
Meteor 1-13 Rocket 4.4 23:44:51 10° NNW 23:50:32 61° W 23:52:26 40° SSW
Meteor 1-23 Rocket 4.2 23:47:34 10° NNW 23:53:20 86° ENE 23:55:43 38° SSE
Timation 1 Rocket 4.3 23:51:20 38° SSW 23:53:50 87° ESE 23:59:53 10° NNE
Okean 1-7 3.6 23:51:46 10° NNW 23:55:47 41° W 23:56:20 39° WSW
